Regional Weather Roundup
Issued by NWS

Home | Current Version | Previous Version | Text Only | Print | Product List | Glossary On
Versions: 1 2 3 4 5 6 7 8 9 10 11 12 13 14 15 16 17 18 19 20 21 22 23 24 25 26 27 28 29 30 31 32 33 34 35 36 37 38 39 40 41 42 43 44 45 46 47 48 49 50
000
ASUS43 KLMK 081410
RWRKY
KENTUCKY REGIONAL WEATHER ROUNDUP
NATIONAL WEATHER SERVICE LOUISVILLE KY
900 AM EST THU DEC 08 2016

NOTE "FAIR" INDICATES FEW OR NO CLOUDS BELOW 12,000 FEET
WITH NO SIGNIFICANT WEATHER AND/OR OBSTRUCTIONS TO VISIBILITY.

KYZ001>023-026-027-061>063-070>075-081500-
WESTERN AND SOUTH CENTRAL KENTUCKY

CITY           SKY/WX    TMP DP  RH WIND       PRES   REMARKS
PADUCAH        PTCLDY    26  12  55 W6        30.45R WCI  19
HENDERSON      CLEAR     27  12  54 W14       30.42R WCI  15
OWENSBORO      MOSUNNY   26  17  68 NW12      30.41R WCI  16
HOPKINSVILLE   PTSUNNY   30  18  62 NW14      30.40R WCI  19
BOWLING GREEN  SUNNY     32  21  64 NW8       30.38R WCI  25
GLASGOW        MOSUNNY   31  23  73 NW9       30.35R WCI  23
$$

KYZ024-025-028>034-038-045-046-053-081500-
NORTH CENTRAL KENTUCKY

CITY           SKY/WX    TMP DP  RH WIND       PRES   REMARKS
LOUISVILLE/SDF MOSUNNY   28  16  60 NW12      30.34R WCI  18
LOUISVILLE/LOU PTSUNNY   28  17  63 NW14      30.35R WCI  17
FORT KNOX      SUNNY     26  16  63 W21       30.32R WCI  12
$$

KYZ035>037-039>044-047>052-055>060-089>105-081500-
NORTHEAST KENTUCKY

CITY           SKY/WX    TMP DP  RH WIND       PRES   REMARKS
LEXINGTON      MOSUNNY   29  16  58 W13       30.28R WCI  19
COVINGTON      MOSUNNY   25  17  72 W16       30.25R WCI  12
FRANKFORT      MOSUNNY   29  17  61 NW7G21    30.29R WCI  22
$$

KYZ054-064>069-076>088-106>120-081500-
SOUTHEAST KENTUCKY

CITY           SKY/WX    TMP DP  RH WIND       PRES   REMARKS
JACKSON        PTSUNNY   31  22  69 VRB6      30.23R WCI  25
LONDON         CLOUDY    31  20  63 W7        30.27R WCI  24
SOMERSET       SUNNY     32  23  69 W8        30.32R WCI  25
MIDDLESBORO    CLOUDY    34  21  59 W3        30.28R
MONTICELLO     CLOUDY    32  24  72 W10G18    30.33R WCI  24
$$





USA.gov is the U.S. government's official web portal to all federal, state and local government web resources and services.